When you browse on this site, cookies collect data to enhance your experience and personalize the content and advertising you see.
Visit our Privacy Policy to learn more. By continuing to use the site, you agree to this use of cookies and data.
  • In United Kingdom
  • List of Countries
  • For 7 days
  • Water Temperature
  • Weather Map
  • Weather Widgets
  • user-avatar
    Login

    Hourly Weather Gyor

    Today, 9 April, Thursday

    Time Temperature Precipitation Wind Pressure Humidity
    00:00 +9°C° 0 mm 2 mps 758 mmHg 49%
    01:00 +9°C° 0 mm 2 mps 758 mmHg 51%
    02:00 +8°C° 0 mm 2 mps 757 mmHg 53%
    03:00 +8°C° 0 mm 2 mps 757 mmHg 54%
    04:00 +7°C° 0 mm 2 mps 757 mmHg 56%
    05:00 +8°C° 0 mm 2 mps 757 mmHg 56%
    06:00 +9°C° 0 mm 2 mps 757 mmHg 56%
    07:00 +12°C° 0 mm 2 mps 757 mmHg 53%
    08:00 +14°C° 0 mm 2 mps 757 mmHg 48%
    09:00 +16°C° 0 mm 3 mps 757 mmHg 42%
    10:00 +18°C° 0 mm 3 mps 757 mmHg 37%
    11:00 +19°C° 0 mm 3 mps 757 mmHg 35%
    12:00 +20°C° 0 mm 3 mps 756 mmHg 34%
    13:00 +21°C° 0 mm 3 mps 756 mmHg 33%
    14:00 +21°C° 0 mm 3 mps 755 mmHg 34%
    15:00 +21°C° 0 mm 3 mps 755 mmHg 35%
    16:00 +21°C° 0 mm 3 mps 755 mmHg 37%
    17:00 +19°C° 0 mm 2 mps 755 mmHg 42%
    18:00 +18°C° 0 mm 1 mps 755 mmHg 48%
    19:00 +14°C° 0 mm 0 mps 755 mmHg 54%
    20:00 +14°C° 0 mm 1 mps 755 mmHg 54%
    21:00 +14°C° 0 mm 1 mps 755 mmHg 54%
    22:00 +14°C° 0 mm 2 mps 756 mmHg 55%
    23:00 +13°C° 0 mm 2 mps 756 mmHg 58%

    Tomorrow, 10 April, Friday

    Time Temperature Precipitation Wind Pressure Humidity
    00:00 +12°C° 0 mm 2 mps 756 mmHg 61%
    01:00 +10°C° 0 mm 2 mps 756 mmHg 64%
    02:00 +10°C° 0 mm 2 mps 756 mmHg 67%
    03:00 +9°C° 0 mm 2 mps 756 mmHg 71%
    04:00 +9°C° 0 mm 2 mps 756 mmHg 75%
    05:00 +10°C° 0 mm 2 mps 756 mmHg 73%
    06:00 +10°C° 0 mm 3 mps 757 mmHg 71%
    07:00 +11°C° 0 mm 3 mps 757 mmHg 70%
    08:00 +13°C° 0 mm 3 mps 757 mmHg 63%
    09:00 +15°C° 0 mm 4 mps 757 mmHg 57%
    10:00 +17°C° 0 mm 4 mps 758 mmHg 51%
    11:00 +18°C° 0 mm 4 mps 757 mmHg 49%
    12:00 +18°C° 0 mm 4 mps 757 mmHg 47%
    13:00 +19°C° 0 mm 4 mps 757 mmHg 46%
    14:00 +19°C° 0 mm 4 mps 757 mmHg 47%
    15:00 +17°C° 0 mm 5 mps 756 mmHg 47%
    16:00 +17°C° 0 mm 5 mps 756 mmHg 48%
    17:00 +15°C° 0 mm 4 mps 756 mmHg 55%
    18:00 +14°C° 0 mm 3 mps 756 mmHg 61%
    19:00 +13°C° 0 mm 2 mps 756 mmHg 68%
    20:00 +12°C° 0 mm 2 mps 756 mmHg 68%
    21:00 +10°C° 0 mm 2 mps 757 mmHg 68%
    22:00 +10°C° 0 mm 2 mps 757 mmHg 69%
    23:00 +10°C° 0 mm 2 mps 757 mmHg 69%

    Day after tomorrow, 11 April, Saturday

    Time Temperature Precipitation Wind Pressure Humidity
    00:00 +9°C° 0 mm 2 mps 757 mmHg 68%
    01:00 +9°C° 0 mm 2 mps 757 mmHg 68%
    02:00 +10°C° 0 mm 1 mps 757 mmHg 68%
    03:00 +9°C° 0 mm 1 mps 757 mmHg 69%
    04:00 +9°C° 0 mm 1 mps 757 mmHg 69%
    05:00 +10°C° 0 mm 1 mps 757 mmHg 67%
    06:00 +10°C° 0 mm 1 mps 757 mmHg 65%
    07:00 +10°C° 0 mm 1 mps 757 mmHg 64%
    08:00 +12°C° 0 mm 1 mps 758 mmHg 59%
    09:00 +14°C° 0 mm 2 mps 758 mmHg 55%
    10:00 +15°C° 0 mm 2 mps 758 mmHg 51%
    11:00 +16°C° 0 mm 2 mps 758 mmHg 49%
    12:00 +17°C° 0 mm 2 mps 758 mmHg 47%
    13:00 +18°C° 0 mm 3 mps 757 mmHg 45%
    14:00 +18°C° 0 mm 3 mps 757 mmHg 46%
    15:00 +18°C° 0 mm 2 mps 757 mmHg 46%
    16:00 +18°C° 0 mm 2 mps 756 mmHg 46%
    17:00 +16°C° 0 mm 2 mps 757 mmHg 50%
    18:00 +15°C° 0 mm 2 mps 757 mmHg 54%
    19:00 +13°C° 0 mm 2 mps 757 mmHg 58%
    20:00 +12°C° 0 mm 1 mps 757 mmHg 59%
    21:00 +11°C° 0 mm 1 mps 757 mmHg 61%
    22:00 +10°C° 0 mm 1 mps 758 mmHg 63%
    23:00 +9°C° 0 mm 1 mps 758 mmHg 64%

    12 April, Sunday

    Time Temperature Precipitation Wind Pressure Humidity
    00:00 +8°C° 0 mm 0 mps 758 mmHg 65%
    01:00 +8°C° 0 mm 0 mps 758 mmHg 66%
    02:00 +9°C° 0 mm 1 mps 757 mmHg 66%
    03:00 +9°C° 0 mm 1 mps 757 mmHg 67%
    04:00 +9°C° 0 mm 1 mps 757 mmHg 67%
    05:00 +9°C° 0 mm 2 mps 757 mmHg 67%
    06:00 +10°C° 0 mm 2 mps 757 mmHg 67%
    07:00 +10°C° 0 mm 3 mps 757 mmHg 67%
    08:00 +12°C° 0 mm 3 mps 757 mmHg 62%
    09:00 +14°C° 0 mm 3 mps 756 mmHg 57%
    10:00 +17°C° 0 mm 4 mps 756 mmHg 52%
    11:00 +18°C° 0 mm 4 mps 755 mmHg 51%
    12:00 +17°C° 0 mm 5 mps 755 mmHg 50%
    13:00 +19°C° 0 mm 5 mps 754 mmHg 50%
    14:00 +19°C° 0 mm 5 mps 754 mmHg 50%
    15:00 +19°C° 0 mm 5 mps 753 mmHg 50%
    16:00 +19°C° 0 mm 5 mps 752 mmHg 50%
    17:00 +17°C° 0 mm 5 mps 752 mmHg 54%
    18:00 +15°C° 0 mm 5 mps 752 mmHg 57%
    19:00 +14°C° 0 mm 4 mps 751 mmHg 60%
    20:00 +13°C° 0 mm 5 mps 751 mmHg 58%
    21:00 +13°C° 0 mm 5 mps 751 mmHg 56%
    22:00 +13°C° 0 mm 5 mps 751 mmHg 54%
    23:00 +13°C° 0 mm 5 mps 751 mmHg 55%

    13 April, Monday

    Time Temperature Precipitation Wind Pressure Humidity
    00:00 +12°C° 0 mm 5 mps 750 mmHg 55%
    01:00 +12°C° 0 mm 5 mps 750 mmHg 56%
    02:00 +10°C° 0 mm 5 mps 750 mmHg 60%
    03:00 +10°C° 0 mm 5 mps 749 mmHg 64%
    04:00 +11°C° 0 mm 4 mps 749 mmHg 68%
    05:00 +11°C° 0 mm 4 mps 749 mmHg 69%
    06:00 +11°C° 0 mm 4 mps 749 mmHg 70%
    07:00 +12°C° 0 mm 4 mps 749 mmHg 71%
    08:00 +13°C° 0 mm 4 mps 749 mmHg 67%
    09:00 +15°C° 0 mm 4 mps 748 mmHg 63%
    10:00 +17°C° 0 mm 4 mps 748 mmHg 60%
    11:00 +18°C° 0 mm 4 mps 748 mmHg 57%
    12:00 +19°C° 0 mm 4 mps 747 mmHg 55%
    13:00 +20°C° 0 mm 4 mps 747 mmHg 53%
    14:00 +20°C° 0.2 mm 4 mps 747 mmHg 53%
    15:00 +20°C° 0.2 mm 4 mps 746 mmHg 52%
    16:00 +20°C° 0.2 mm 4 mps 746 mmHg 52%
    17:00 +18°C° 0.4 mm 4 mps 746 mmHg 62%
    18:00 +16°C° 0.4 mm 3 mps 746 mmHg 72%
    19:00 +13°C° 0.4 mm 3 mps 746 mmHg 82%
    20:00 +13°C° 0 mm 3 mps 746 mmHg 81%
    21:00 +12°C° 0 mm 3 mps 746 mmHg 81%
    22:00 +12°C° 0 mm 3 mps 746 mmHg 81%
    23:00 +12°C° 0 mm 3 mps 746 mmHg 81%

    14 April, Tuesday

    Time Temperature Precipitation Wind Pressure Humidity
    00:00 +11°C° 0 mm 3 mps 745 mmHg 82%
    01:00 +11°C° 0 mm 3 mps 745 mmHg 82%
    02:00 +11°C° 0 mm 4 mps 746 mmHg 83%
    03:00 +9°C° 0 mm 6 mps 746 mmHg 83%
    04:00 +9°C° 0 mm 7 mps 746 mmHg 84%
    05:00 +8°C° 0 mm 7 mps 747 mmHg 80%
    06:00 +6°C° 0 mm 8 mps 748 mmHg 77%
    07:00 +5°C° 0 mm 8 mps 749 mmHg 74%
    08:00 +5°C° 0 mm 9 mps 750 mmHg 64%
    09:00 +6°C° 0 mm 9 mps 751 mmHg 55%
    10:00 +6°C° 0 mm 9 mps 752 mmHg 45%
    11:00 +6°C° 0 mm 9 mps 753 mmHg 43%
    12:00 +7°C° 0 mm 8 mps 753 mmHg 40%
    13:00 +8°C° 0 mm 7 mps 754 mmHg 37%
    14:00 +8°C° 0 mm 7 mps 754 mmHg 38%
    15:00 +8°C° 0 mm 6 mps 754 mmHg 39%
    16:00 +8°C° 0 mm 6 mps 754 mmHg 40%
    17:00 +7°C° 0 mm 4 mps 754 mmHg 46%
    18:00 +7°C° 0 mm 3 mps 755 mmHg 51%
    19:00 +5°C° 0 mm 2 mps 755 mmHg 57%
    20:00 +4°C° 0 mm 2 mps 756 mmHg 58%
    21:00 +4°C° 0 mm 2 mps 756 mmHg 59%
    22:00 +3°C° 0 mm 2 mps 757 mmHg 60%
    23:00 +3°C° 0 mm 1 mps 757 mmHg 60%
    Show more